DW9439 Weather Reports


Display with metric or nautical units.
time (UTC)temp
F
wind
direction
speed
MPH
gust
MPH
rain 1hr
in
rain 24hr
in
rain mn
in
humidity
%
barometer
mb
20260506002123 41 74 4.0 7.0 0.00 0.04 0.04 88 1021.4
20260506001817 41 74 3.0 8.0 0.00 0.04 0.04 87 1021.4
20260506001508 41 74 3.0 8.0 0.00 0.04 0.04 88 1021.3
20260506000753 41 74 4.0 8.0 0.00 0.04 0.04 88 1021.4
20260506000453 41 74 4.0 8.0 0.00 0.04 0.04 87 1021.3
20260506000157 41 74 4.0 8.0 0.00 0.04 0.04 87 1021.3
20260505235429 41 74 4.0 8.0 0.00 0.04 0.04 87 1021.3
20260505235124 41 74 5.0 8.0 0.00 0.04 0.04 87 1021.4
20260505234823 41 74 4.0 8.0 0.00 0.04 0.04 87 1021.3
20260505234510 41 74 4.0 8.0 0.00 0.04 0.04 87 1021.2
20260505233744 41 74 4.0 8.0 0.00 0.04 0.04 87 1021.3
20260505233442 41 74 4.0 8.0 0.00 0.04 0.04 87 1021.2
20260505233141 41 74 5.0 8.0 0.00 0.04 0.04 87 1021.0
20260505232830 41 74 5.0 8.0 0.00 0.04 0.04 87 1021.1
20260505232108 41 74 5.0 7.0 0.00 0.04 0.04 87 1020.9
20260505231352 41 74 4.0 9.0 0.00 0.04 0.04 87 1021.0
20260505230621 41 74 5.0 9.0 0.00 0.04 0.04 86 1020.8
20260505230322 41 74 5.0 9.0 0.00 0.04 0.04 86 1020.8
20260505230021 41 74 5.0 9.0 0.00 0.04 0.04 86 1020.8
20260505225720 41 74 6.0 9.0 0.00 0.04 0.04 86 1020.8
20260505225416 41 74 6.0 9.0 0.00 0.04 0.04 86 1020.8
20260505225109 41 74 6.0 10.0 0.00 0.04 0.04 85 1020.7
20260505224807 41 74 6.0 10.0 0.00 0.04 0.04 85 1020.7
20260505224456 42 74 6.0 10.0 0.00 0.04 0.04 85 1020.6
20260505223731 42 74 6.0 10.0 0.00 0.04 0.04 85 1020.5
20260505223426 42 74 6.0 10.0 0.00 0.04 0.04 85 1020.6
20260505223120 42 74 5.0 9.0 0.00 0.04 0.04 85 1020.5
20260505222354 41 74 6.0 9.0 0.00 0.03 0.03 84 1020.5
20260505222041 41 74 6.0 9.0 0.04 0.03 0.03 84 1020.6
20260505221740 41 74 6.0 8.0 0.05 0.03 0.03 84 1020.6
20260505221438 41 74 6.0 8.0 0.06 0.03 0.03 83 1020.6
20260505221134 41 74 5.0 8.0 0.06 0.03 0.03 83 1020.6
20260505220838 42 74 5.0 8.0 0.06 0.03 0.03 83 1020.7
20260505220115 42 74 4.0 8.0 0.05 0.02 0.02 83 1020.7
20260505215805 42 74 4.0 8.0 0.05 0.02 0.02 82 1020.7
20260505215500 42 74 4.0 7.0 0.00 0.01 0.01 82 1020.7
20260505215155 42 74 4.0 7.0 0.00 0.01 0.01 82 1020.8
20260505214844 42 74 4.0 7.0 0.00 0.01 0.01 82 1020.9
20260505214114 42 74 4.0 7.0 0.00 0.00 0.00 81 1020.9
20260505213804 42 74 5.0 7.0 0.00 0.00 0.00 81 1020.8
20260505213504 42 74 5.0 7.0 0.00 0.00 0.00 81 1020.7
20260505213153 42 74 5.0 7.0 0.00 0.00 0.00 80 1020.7
20260505212856 42 74 4.0 7.0 0.00 0.00 0.00 80 1020.7
20260505212548 42 74 4.0 7.0 0.00 0.00 0.00 80 1020.7
20260505212243 43 74 4.0 7.0 0.00 0.00 0.00 80 1020.8
20260505211943 43 74 4.0 7.0 0.00 0.00 0.00 80 1020.8
20260505211639 43 74 4.0 7.0 0.00 0.00 0.00 79 1021.0
20260505211339 43 74 4.0 7.0 0.00 0.00 0.00 79 1020.8
20260505211042 43 74 4.0 8.0 0.00 0.00 0.00 79 1020.8
20260505210741 43 74 4.0 8.0 0.00 0.00 0.00 79 1020.8
20260505210434 43 74 4.0 8.0 0.00 0.00 0.00 78 1020.7
20260505210131 43 74 5.0 8.0 0.00 0.00 0.00 78 1020.6
20260505205824 43 74 5.0 8.0 0.00 0.00 0.00 78 1020.6
20260505205511 43 74 5.0 8.0 0.00 0.00 0.00 78 1020.5
20260505205212 43 74 5.0 9.0 0.00 0.00 0.00 78 1020.5
20260505204900 43 74 5.0 9.0 0.00 0.00 0.00 77 1020.5
20260505204550 44 74 5.0 9.0 0.00 0.00 0.00 78 1020.5
20260505204240 44 74 6.0 9.0 0.00 0.00 0.00 77 1020.4
20260505203929 44 74 6.0 11.0 0.00 0.00 0.00 77 1020.4
20260505203618 44 74 5.0 11.0 0.00 0.00 0.00 77 1020.4
20260505203305 44 73 5.0 11.0 0.00 0.00 0.00 77 1020.4
20260505202957 44 73 6.0 11.0 0.00 0.00 0.00 77 1020.2
20260505202655 44 73 6.0 11.0 0.00 0.00 0.00 78 1020.2
20260505201926 44 73 6.0 10.0 0.00 0.00 0.00 78 1020.1
20260505201616 44 72 6.0 10.0 0.00 0.00 0.00 78 1020.0
20260505201313 44 72 6.0 10.0 0.00 0.00 0.00 78 1020.0
20260505201005 44 72 6.0 10.0 0.00 0.00 0.00 78 1020.1
20260505200701 44 72 6.0 10.0 0.00 0.00 0.00 78 1020.2
20260505200402 44 71 6.0 9.0 0.00 0.00 0.00 79 1020.2
20260505200051 44 71 5.0 9.0 0.00 0.00 0.00 79 1020.2
20260505195740 44 71 5.0 9.0 0.00 0.00 0.00 79 1020.2
20260505195441 44 71 5.0 9.0 0.00 0.00 0.00 79 1020.3
20260505194720 44 71 5.0 10.0 0.00 0.00 0.00 79 1020.2
20260505194407 44 71 5.0 10.0 0.00 0.00 0.00 79 1020.2
20260505194100 44 71 5.0 10.0 0.00 0.00 0.00 79 1020.2
20260505193337 44 70 5.0 10.0 0.00 0.00 0.00 79 1020.1
20260505193033 44 70 5.0 10.0 0.00 0.00 0.00 79 1020.1
20260505192306 44 69 5.0 8.0 0.00 0.00 0.00 79 1020.2
20260505191546 44 69 5.0 9.0 0.00 0.00 0.00 79 1020.2
20260505191249 44 69 5.0 9.0 0.00 0.00 0.00 79 1020.2
20260505190518 44 69 5.0 9.0 0.00 0.00 0.00 79 1020.2
20260505190214 44 69 4.0 9.0 0.00 0.00 0.00 79 1020.2
20260505185904 44 69 4.0 9.0 0.00 0.00 0.00 79 1020.3
20260505185604 44 69 5.0 9.0 0.00 0.00 0.00 79 1020.3
20260505185305 44 69 5.0 9.0 0.00 0.00 0.00 79 1020.3
20260505184553 44 69 5.0 11.0 0.00 0.00 0.00 79 1020.3
20260505184241 44 69 5.0 11.0 0.00 0.00 0.00 79 1020.3
20260505183939 44 69 5.0 11.0 0.00 0.00 0.00 80 1020.3
20260505183627 44 69 6.0 11.0 0.00 0.00 0.00 80 1020.3
20260505183315 44 69 6.0 11.0 0.00 0.00 0.00 80 1020.2
20260505183004 43 68 6.0 11.0 0.00 0.00 0.00 80 1020.2
20260505182707 43 69 5.0 10.0 0.00 0.00 0.00 80 1020.2
20260505182359 43 69 5.0 9.0 0.00 0.00 0.00 80 1020.0
20260505181634 44 69 5.0 11.0 0.00 0.00 0.00 79 1020.0
20260505181327 44 69 6.0 11.0 0.00 0.00 0.00 79 1019.9
20260505181016 44 69 6.0 11.0 0.00 0.00 0.00 78 1019.9
20260505180703 44 69 7.0 11.0 0.00 0.00 0.00 78 1019.9
20260505180404 44 69 7.0 11.0 0.00 0.00 0.00 78 1019.9
20260505175800 44 72 6.0 12.0 0.00 0.00 0.00 77 1020.0
20260505175447 44 74 6.0 12.0 0.00 0.00 0.00 77 1020.1
20260505175144 44 74 5.0 12.0 0.00 0.00 0.00 76 1020.2
20260505174842 44 77 5.0 12.0 0.00 0.00 0.00 76 1020.3
20260505174531 44 77 5.0 12.0 0.00 0.00 0.00 76 1020.3
20260505174219 44 77 4.0 12.0 0.00 0.00 0.00 76 1020.2
20260505173449 44 78 5.0 9.0 0.00 0.00 0.00 76 1020.1
20260505173137 45 78 5.0 9.0 0.00 0.00 0.00 76 1020.1
20260505172833 45 78 5.0 9.0 0.00 0.00 0.00 75 1020.0
20260505172522 45 80 5.0 8.0 0.00 0.00 0.00 75 1020.0
20260505172223 45 80 5.0 11.0 0.00 0.00 0.00 75 1020.0
20260505171501 45 80 6.0 11.0 0.00 0.00 0.00 75 1019.9
20260505171159 45 80 6.0 11.0 0.00 0.00 0.00 74 1020.0
20260505170845 45 80 6.0 11.0 0.00 0.00 0.00 74 1019.9
20260505170128 45 81 6.0 10.0 0.00 0.00 0.00 74 1019.9
20260505165827 45 82 6.0 10.0 0.00 0.00 0.00 74 1019.9
20260505165515 44 82 6.0 10.0 0.00 0.00 0.00 74 1020.0
20260505165202 44 82 6.0 10.0 0.00 0.00 0.00 74 1020.0
20260505164902 44 81 6.0 10.0 0.00 0.00 0.00 74 1019.9
20260505164558 44 81 6.0 9.0 0.00 0.00 0.00 74 1019.9
20260505164257 45 84 5.0 9.0 0.00 0.00 0.00 74 1019.8
20260505163955 45 84 5.0 9.0 0.00 0.00 0.00 74 1019.8
20260505163642 45 85 5.0 8.0 0.00 0.00 0.00 74 1020.0
20260505162925 45 86 6.0 8.0 0.00 0.00 0.00 73 1020.0
20260505162205 45 86 5.0 9.0 0.00 0.00 0.00 73 1020.0
20260505161438 45 86 6.0 9.0 0.00 0.00 0.00 73 1020.0
20260505161139 45 86 6.0 9.0 0.00 0.00 0.00 73 1020.0
20260505160830 45 86 6.0 9.0 0.00 0.00 0.00 73 1020.0
20260505160527 45 86 6.0 10.0 0.00 0.00 0.00 73 1020.0
20260505160231 45 86 6.0 10.0 0.00 0.00 0.00 73 1019.9
20260505153208 45 84 7.0 13.0 0.00 0.00 0.00 72 1019.6
20260505152907 45 84 7.0 13.0 0.00 0.00 0.00 72 1019.6
20260505152559 45 83 8.0 13.0 0.00 0.00 0.00 72 1019.5
20260505152259 45 84 8.0 13.0 0.00 0.00 0.00 72 1019.5
20260505152001 45 84 8.0 13.0 0.00 0.00 0.00 71 1019.6
20260505151655 45 83 8.0 13.0 0.00 0.00 0.00 72 1019.5
20260505151347 45 82 7.0 12.0 0.00 0.00 0.00 72 1019.5
20260505151039 45 82 7.0 11.0 0.00 0.00 0.00 72 1019.5
20260505150727 45 82 7.0 11.0 0.00 0.00 0.00 72 1019.4
20260505150422 45 81 7.0 11.0 0.00 0.00 0.00 73 1019.5
20260505150121 45 81 7.0 11.0 0.00 0.00 0.00 72 1019.6
20260505140644 44 66 8.0 15.0 0.00 0.00 0.00 77 1018.7
20260505140343 44 64 8.0 15.0 0.00 0.00 0.00 77 1018.6
20260505124812 44 61 7.0 12.0 0.00 0.00 0.00 80 1017.5
20260505124458 44 61 7.0 12.0 0.00 0.00 0.00 80 1017.5
20260505124155 44 61 8.0 12.0 0.00 0.00 0.00 80 1017.5
20260505123848 44 60 7.0 12.0 0.00 0.00 0.00 80 1017.2
20260505123545 43 61 7.0 12.0 0.00 0.00 0.00 80 1017.3
20260505123231 43 60 7.0 11.0 0.00 0.00 0.00 80 1017.2
20260505122927 43 61 6.0 11.0 0.00 0.00 0.00 80 1017.1
20260505122620 43 61 6.0 11.0 0.00 0.00 0.00 80 1017.0
20260505122308 43 61 6.0 11.0 0.00 0.00 0.00 80 1017.0
20260505121958 43 60 7.0 11.0 0.00 0.00 0.00 81 1017.0
20260505121656 44 59 6.0 12.0 0.00 0.00 0.00 81 1016.9
20260505121342 44 60 6.0 12.0 0.00 0.00 0.00 81 1016.7
20260505121033 44 60 6.0 12.0 0.00 0.00 0.00 81 1016.6
20260505120720 44 60 6.0 12.0 0.00 0.00 0.00 81 1016.6
20260505120408 44 60 6.0 12.0 0.00 0.00 0.00 81 1016.3
20260505120058 44 60 6.0 12.0 0.00 0.00 0.00 81 1016.3
20260505115756 44 61 6.0 12.0 0.00 0.00 0.00 81 1016.3
20260505115458 44 61 6.0 11.0 0.00 0.00 0.00 81 1016.2
20260505115144 44 63 6.0 11.0 0.00 0.00 0.00 81 1016.3
20260505114832 44 63 6.0 10.0 0.00 0.00 0.00 80 1016.2
20260505114522 44 63 6.0 17.0 0.00 0.00 0.00 80 1016.1
20260505114208 44 63 7.0 17.0 0.00 0.00 0.00 80 1015.9
20260505113859 44 63 8.0 17.0 0.00 0.00 0.00 80 1015.9
20260505113136 43 62 7.0 17.0 0.00 0.00 0.00 80 1016.0
20260505112829 44 55 7.0 17.0 0.00 0.00 0.00 80 1016.1
20260505112521 44 62 7.0 13.0 0.00 0.00 0.00 80 1016.0
20260505112209 44 62 7.0 13.0 0.00 0.00 0.00 80 1016.0
20260505111857 44 62 7.0 13.0 0.00 0.00 0.00 80 1015.9
20260505111550 44 58 7.0 13.0 0.00 0.00 0.00 80 1016.0
20260505111248 44 56 7.0 13.0 0.00 0.00 0.00 80 1015.9
20260505110940 44 55 7.0 13.0 0.00 0.00 0.00 80 1016.0
20260505110634 44 55 6.0 13.0 0.00 0.00 0.00 80 1016.1
20260505110338 44 56 7.0 13.0 0.00 0.00 0.00 80 1015.9
20260505102026 44 61 9.0 14.0 0.00 0.00 0.00 78 1015.4
20260505101711 44 59 9.0 15.0 0.00 0.00 0.00 77 1015.5
20260505101413 44 59 9.0 15.0 0.00 0.00 0.00 77 1015.4
20260505101115 44 61 9.0 15.0 0.00 0.00 0.00 77 1015.4
20260505100406 45 58 9.0 19.0 0.00 0.00 0.00 77 1015.5
20260505094757 45 58 9.0 22.0 0.00 0.00 0.00 76 1015.3
20260505094447 45 59 10.0 22.0 0.00 0.00 0.00 76 1015.1
20260505094150 46 59 10.0 22.0 0.00 0.00 0.00 76 1015.0
20260505093851 46 58 10.0 22.0 0.00 0.00 0.00 75 1015.0
20260505093551 46 59 10.0 22.0 0.00 0.00 0.00 75 1014.7
20260505093237 46 57 10.0 22.0 0.00 0.00 0.00 74 1014.6
20260505090814 48 65 8.0 15.0 0.00 0.00 0.00 70 1014.0
20260505090509 48 66 9.0 15.0 0.00 0.00 0.00 69 1013.7
20260505090213 48 68 9.0 14.0 0.00 0.00 0.00 69 1013.6
20260505085909 49 70 9.0 14.0 0.00 0.00 0.00 68 1013.4
20260505085602 49 72 9.0 14.0 0.00 0.00 0.00 68 1013.3
20260505085301 49 76 9.0 13.0 0.00 0.00 0.00 67 1013.2
20260505085003 49 77 9.0 14.0 0.00 0.00 0.00 67 1013.2
20260505084703 49 82 8.0 14.0 0.00 0.00 0.00 66 1013.2
20260505084351 50 80 8.0 14.0 0.00 0.00 0.00 66 1013.3
20260505083621 50 74 8.0 20.0 0.00 0.00 0.00 64 1013.5
20260505082859 50 69 8.0 20.0 0.00 0.00 0.00 63 1013.9
20260505082600 50 71 8.0 20.0 0.00 0.00 0.00 62 1013.8
20260505082250 51 72 8.0 20.0 0.00 0.00 0.00 62 1013.7
20260505081944 51 76 8.0 17.0 0.00 0.00 0.00 62 1013.7
20260505081230 51 76 8.0 17.0 0.00 0.00 0.00 61 1014.0
20260505080502 51 65 8.0 14.0 0.00 0.00 0.00 60 1014.1
20260505080151 51 68 8.0 18.0 0.00 0.00 0.00 59 1013.9
20260505075843 51 63 8.0 18.0 0.00 0.00 0.00 59 1013.9
20260505075531 52 65 8.0 18.0 0.00 0.00 0.00 58 1013.9
20260505074355 52 74 8.0 18.0 0.00 0.00 0.00 57 1013.9
20260505074054 52 71 8.0 14.0 0.00 0.00 0.00 57 1014.0
20260505073746 52 68 8.0 14.0 0.00 0.00 0.00 57 1014.2
20260505073438 52 67 9.0 14.0 0.00 0.00 0.00 56 1014.1
20260505073132 52 68 8.0 14.0 0.00 0.00 0.00 56 1014.2
20260505072828 52 72 8.0 15.0 0.00 0.00 0.00 56 1014.5
20260505072528 52 66 8.0 15.0 0.00 0.00 0.00 56 1014.6
20260505072225 52 67 7.0 15.0 0.00 0.00 0.00 56 1014.7
20260505071924 52 65 8.0 15.0 0.00 0.00 0.00 56 1014.7
20260505071614 52 63 8.0 22.0 0.00 0.00 0.00 56 1014.8
20260505071312 53 62 9.0 22.0 0.00 0.00 0.00 55 1014.8
20260505071000 53 57 9.0 22.0 0.00 0.00 0.00 56 1014.6
20260505070653 53 65 10.0 22.0 0.00 0.00 0.00 56 1014.7
20260505065039 53 59 13.0 22.0 0.00 0.00 0.00 55 1014.1
20260505064329 54 54 12.0 22.0 0.00 0.00 0.00 54 1013.9
20260505064018 54 69 12.0 22.0 0.00 0.00 0.00 54 1013.5
20260505063705 54 75 12.0 22.0 0.00 0.00 0.00 54 1013.5
20260505063405 55 57 10.0 21.0 0.00 0.00 0.00 54 1013.5
20260505063052 55 61 10.0 20.0 0.00 0.00 0.00 54 1013.4
20260505062316 55 69 10.0 19.0 0.00 0.00 0.00 53 1013.3
20260505062010 55 69 10.0 19.0 0.00 0.00 0.00 53 1013.2
20260505061708 55 74 9.0 19.0 0.00 0.00 0.00 53 1013.2
20260505061411 55 72 9.0 19.0 0.00 0.00 0.00 53 1013.1
20260505061103 55 69 8.0 19.0 0.00 0.00 0.00 53 1013.1
20260505060751 55 68 9.0 19.0 0.00 0.00 0.00 53 1013.2
20260505060455 55 63 8.0 19.0 0.00 0.00 0.00 53 1013.3
20260505055727 56 63 8.0 14.0 0.00 0.00 0.00 53 1013.3
20260505055431 56 63 8.0 14.0 0.00 0.00 0.00 52 1013.1
20260505055134 56 62 8.0 14.0 0.00 0.00 0.00 52 1013.1
20260505054836 56 63 8.0 14.0 0.00 0.00 0.00 52 1013.1
20260505054537 56 63 8.0 14.0 0.00 0.00 0.00 52 1013.1
20260505054225 56 62 8.0 17.0 0.00 0.00 0.00 52 1012.9
20260505053459 56 67 8.0 17.0 0.00 0.00 0.00 51 1012.8
20260505052727 56 80 8.0 17.0 0.00 0.00 0.00 51 1012.8
20260505052430 56 76 8.0 17.0 0.00 0.00 0.00 51 1012.7
20260505052124 57 73 9.0 18.0 0.00 0.00 0.00 51 1012.8
20260505051410 57 88 8.0 18.0 0.00 0.00 0.00 51 1012.6
20260505051112 57 67 8.0 18.0 0.00 0.00 0.00 51 1012.5
20260505050352 57 74 9.0 18.0 0.00 0.00 0.00 51 1012.3
20260505041614 59 72 11.0 25.0 0.00 0.00 0.00 53 1011.2
20260505041306 60 55 12.0 25.0 0.00 0.00 0.00 53 1011.1
20260505041007 60 87 11.0 19.0 0.00 0.00 0.00 53 1011.0
20260505040703 60 80 11.0 19.0 0.00 0.00 0.00 53 1011.0
20260505040400 60 65 10.0 19.0 0.00 0.00 0.00 53 1011.0
20260505040048 61 74 10.0 19.0 0.00 0.00 0.00 53 1010.9
20260505035748 61 73 10.0 19.0 0.00 0.00 0.00 52 1010.9
20260505035444 61 67 10.0 19.0 0.00 0.00 0.00 52 1011.0
20260505035146 61 86 11.0 19.0 0.00 0.00 0.00 51 1011.1
20260505034430 62 91 11.0 21.0 0.00 0.00 0.00 50 1011.1
20260505034131 62 88 11.0 21.0 0.00 0.00 0.00 49 1010.9
20260505033819 63 90 12.0 21.0 0.00 0.00 0.00 48 1010.7
20260505033507 63 82 12.0 21.0 0.00 0.00 0.00 48 1010.5
20260505033203 64 90 11.0 21.0 0.00 0.00 0.00 47 1010.4
20260505032858 64 88 12.0 21.0 0.00 0.00 0.00 46 1010.5
20260505032600 65 85 12.0 21.0 0.00 0.00 0.00 45 1010.4
20260505031840 66 81 11.0 20.0 0.00 0.00 0.00 43 1010.2
20260505031534 66 71 11.0 20.0 0.00 0.00 0.00 43 1010.1
20260505031221 67 73 10.0 20.0 0.00 0.00 0.00 41 1010.1
20260505030907 67 81 11.0 19.0 0.00 0.00 0.00 40 1009.9
20260505030600 68 79 11.0 17.0 0.00 0.00 0.00 38 1009.7
20260505030252 69 79 10.0 17.0 0.00 0.00 0.00 37 1009.5
20260505025942 69 67 9.0 15.0 0.00 0.00 0.00 34 1009.5
20260505025643 69 72 7.0 14.0 0.00 0.00 0.00 30 1009.3
20260505025343 69 38 6.0 14.0 0.00 0.00 0.00 30 1008.9
20260505024633 70 49 6.0 10.0 0.00 0.00 0.00 30 1008.8
20260505024325 70 49 6.0 10.0 0.00 0.00 0.00 30 1008.8
20260505024026 70 56 6.0 10.0 0.00 0.00 0.00 29 1008.6
20260505023715 71 79 5.0 10.0 0.00 0.00 0.00 29 1008.6
20260505022949 71 101 3.0 12.0 0.00 0.00 0.00 29 1008.7
20260505022652 72 103 4.0 12.0 0.00 0.00 0.00 29 1008.6
20260505022352 72 104 3.0 17.0 0.00 0.00 0.00 28 1008.6
20260505022047 72 107 3.0 17.0 0.00 0.00 0.00 28 1008.7
20260505021749 72 119 3.0 17.0 0.00 0.00 0.00 28 1008.6
20260505021451 72 182 4.0 17.0 0.00 0.00 0.00 28 1008.4
20260505020719 72 182 5.0 17.0 0.00 0.00 0.00 29 1008.3
20260505020416 71 190 3.0 17.0 0.00 0.00 0.00 29 1008.2
20260505020112 71 101 1.0 5.0 0.00 0.00 0.00 29 1008.2
20260505015809 71 101 2.0 6.0 0.00 0.00 0.00 29 1008.0
20260505015506 71 101 3.0 6.0 0.00 0.00 0.00 29 1007.9
20260505015202 71 101 4.0 6.0 0.00 0.00 0.00 29 1008.0
20260505014454 71 101 5.0 10.0 0.00 0.00 0.00 29 1007.7
20260505013737 71 101 6.0 10.0 0.00 0.00 0.00 29 1007.6
20260505013433 71 101 6.0 10.0 0.00 0.00 0.00 29 1007.6
20260505012252 71 101 4.0 7.0 0.00 0.00 0.00 30 1007.6
20260505011937 71 101 3.0 7.0 0.00 0.00 0.00 30 1007.6
20260505011640 71 101 3.0 7.0 0.00 0.00 0.00 30 1007.6
20260505011334 71 101 2.0 7.0 0.00 0.00 0.00 31 1007.6
20260505011021 71 101 2.0 6.0 0.00 0.00 0.00 30 1007.6
20260505010713 72 101 3.0 6.0 0.00 0.00 0.00 30 1007.4
20260505010412 72 101 3.0 6.0 0.00 0.00 0.00 29 1007.4
20260505010103 73 101 4.0 6.0 0.00 0.00 0.00 30 1007.4
20260505005758 73 101 4.0 6.0 0.00 0.00 0.00 29 1007.4
20260505005459 73 101 3.0 6.0 0.00 0.00 0.00 28 1007.4
20260505005146 74 101 3.0 6.0 0.00 0.00 0.00 27 1007.2
20260505004422 75 101 4.0 6.0 0.00 0.00 0.00 27 1007.3
20260505004115 75 101 4.0 6.0 0.00 0.00 0.00 26 1007.3
20260505003812 75 101 3.0 5.0 0.00 0.00 0.00 25 1007.3
20260505003500 76 101 3.0 9.0 0.00 0.00 0.00 25 1007.3
20260505003150 76 101 3.0 9.0 0.00 0.00 0.00 25 1007.3
20260505002847 76 101 4.0 9.0 0.00 0.00 0.00 25 1007.3
20260505002540 76 101 5.0 9.0 0.00 0.00 0.00 25 1007.2